Wind_Speed
8 9 11 12 14 15 15 16 16 16 16 15 15 15 14 14 15 16 17 17 17 18 18 18 19 19 19 19 19 20 20 21 21 21 21 21 21 21 21 21 21 21 21
7 8 10 11 13 14 14 16 16 16 16 16 16 16 15 16 16 17 18 19 19 19 20 20 21 21 22 22 23 23 24 24 24 24 24 24 24 24 24 24 24 24 25
7 8 9 11 12 12 13 14 15 16 17 17 17 18 18 18 18 18 19 20 20 20 21 22 22 23 24 25 26 26 27 28 28 27 27 28 28 28 28 28 28 28 28
6 8 9 10 11 12 13 13 14 15 15 16 18 18 19 19 19 20 21 22 22 23 24 24 25 26 27 28 29 29 30 30 31 31 31 31 31 31 31 31 30 31 31
7 8 10 11 12 12 12 13 14 14 15 15 16 17 18 19 20 21 22 23 23 24 25 26 27 28 30 31 31 32 33 33 34 34 34 34 34 34 34 34 34 34 34
9 9 10 11 12 13 13 13 14 15 16 16 16 17 18 19 20 22 23 24 24 26 27 29 29 30 32 34 35 35 35 35 36 37 37 37 37 38 38 38 37 36 36
11 10 10 12 13 14 15 14 15 15 16 17 18 19 19 20 22 24 24 25 26 27 29 30 31 32 32 34 35 36 36 36 37 38 39 39 40 40 41 41 41 40 39
13 13 12 12 13 14 14 15 16 17 18 19 20 21 21 22 24 25 26 27 27 29 29 30 31 32 32 34 35 36 37 38 39 39 39 41 42 42 43 44 45 44 43
16 16 15 15 15 16 17 17 18 19 20 21 22 23 24 24 26 27 28 29 29 30 32 32 33 34 35 36 37 38 38 39 40 41 41 42 42 43 44 45 46 47 46
18 19 18 19 19 20 20 20 21 21 22 23 24 24 25 26 27 29 30 32 32 33 35 36 36 37 38 39 39 41 41 42 43 43 44 44 45 45 45 46 47 47 48
22 21 20 20 21 21 22 23 23 24 25 26 27 28 29 29 30 31 32 34 35 37 38 38 39 40 41 41 42 43 43 44 45 46 46 47 47 47 47 47 48 48 48
24 23 22 23 23 23 24 25 26 27 29 30 30 31 31 32 32 33 34 35 37 39 39 40 40 41 42 43 44 44 45 46 47 47 48 48 48 49 49 49 49 50 51
25 25 25 25 26 26 27 27 29 30 30 31 32 32 33 34 34 34 35 36 37 38 40 40 42 43 45 46 46 47 48 48 49 49 49 50 51 51 51 51 51 51 51
27 27 28 27 27 28 30 31 31 32 33 33 34 34 34 35 35 36 37 38 38 40 41 43 44 45 46 47 48 48 49 49 50 50 50 51 52 52 53 53 52 52 52
28 28 28 29 30 30 30 31 31 32 33 33 33 34 34 34 35 36 38 39 41 43 44 46 47 48 49 49 49 49 49 49 50 51 51 52 52 53 53 53 52 52 52
29 29 29 30 29 30 30 31 31 31 32 32 33 33 34 35 37 38 40 41 43 45 46 48 49 50 51 51 51 51 51 52 52 53 52 52 52 52 52 52 52 51 51
28 28 28 28 30 30 30 31 32 32 32 32 33 35 36 38 39 40 42 43 45 46 48 49 50 51 51 51 51 52 52 52 52 52 51 51 50 50 50 49 48 49 49
27 27 27 27 28 28 29 30 31 31 32 33 35 37 38 40 41 43 44 45 47 48 49 50 51 51 51 51 51 51 51 51 50 50 49 49 48 48 48 48 48 48 49
24 24 24 25 26 27 28 29 31 32 34 35 36 38 40 42 43 45 46 47 48 49 50 50 51 50 50 50 50 50 49 49 48 48 48 48 48 47 47 47 47 47 47
20 21 22 24 26 27 29 30 32 34 35 37 39 41 42 44 45 46 47 48 49 49 49 49 49 49 49 49 48 48 47 47 47 46 46 46 45 45 45 45 45 44 43
20 22 24 26 28 29 31 32 34 36 38 40 41 43 45 46 46 47 47 47 46 46 46 46 46 45 44 43 43 43 43 43 42 42 42 41 41 41 41 40 40 39 38
22 24 26 28 29 31 33 35 37 39 40 41 43 44 44 45 46 46 46 45 44 44 43 43 42 41 39 39 39 40 40 39 39 38 38 38 38 38 37 37 36 35 34
25 27 28 30 32 33 35 36 38 39 41 42 43 43 43 44 44 44 43 43 42 42 41 39 39 38 38 38 37 37 37 36 36 36 36 36 36 35 34 33 33 32 31
27 29 31 32 33 35 36 38 39 40 42 42 42 42 42 42 41 40 39 38 38 37 37 37 36 36 36 36 36 36 35 35 35 35 34 33 33 32 31 30 29 29 28
29 31 32 34 35 37 38 39 40 40 40 40 40 39 38 38 36 35 35 35 35 34 34 34 34 34 34 34 34 33 33 33 32 32 31 30 29 29 28 27 27 27 27
31 33 34 35 36 37 38 38 38 38 38 38 37 35 35 34 34 33 33 32 33 33 33 33 33 33 33 32 31 31 30 30 29 28 27 27 27 26 26 25 25 25 25
Wind_Direction
225 222 219 218 215 216 217 214 216 221 225 230 233 236 240 245 247 248 251 254 257 262 267 270 272 275 279 282 285 287 289 291 293 294 295 296 295 294 293 292 291 290 290
223 224 222 222 217 217 217 218 222 227 232 235 238 241 244 249 251 253 256 259 261 264 268 271 273 276 278 280 282 284 286 287 289 291 291 292 292 292 291 290 289 288 287
233 231 232 228 225 223 222 224 228 232 236 239 244 247 249 252 255 259 261 263 265 267 270 272 275 276 277 280 282 283 284 284 285 286 287 288 288 288 288 287 287 286 285
247 242 239 233 228 228 231 233 234 240 243 243 246 249 252 255 258 264 266 267 268 269 271 273 275 277 279 281 282 283 283 283 283 283 284 285 285 285 285 284 283 283 283
258 251 241 237 237 234 236 238 243 248 248 247 248 253 255 258 261 266 268 269 270 272 273 274 276 278 280 282 283 284 284 283 283 283 283 284 284 284 283 282 281 281 281
261 258 251 246 244 241 243 247 248 250 251 253 254 257 262 263 264 268 271 272 272 274 276 277 279 281 282 283 284 284 284 283 282 283 283 283 283 282 282 281 281 281 280
263 264 263 257 252 249 249 252 254 255 256 258 260 263 265 268 271 273 275 275 275 276 278 280 282 284 285 285 285 286 286 285 285 284 283 283 283 282 281 280 281 280 280
263 262 261 260 255 254 254 256 257 259 260 262 263 265 268 272 275 275 276 278 280 280 281 283 285 286 288 288 287 287 286 286 286 286 285 284 284 284 282 281 281 280 280
262 261 260 258 258 258 258 260 261 263 265 267 269 269 270 273 276 278 279 281 283 283 284 285 286 287 288 288 289 289 288 287 286 286 287 286 285 285 284 284 282 281 279
264 263 261 260 261 262 261 263 264 266 268 270 272 272 273 275 278 280 282 283 284 285 285 286 286 288 289 289 290 290 288 287 286 286 286 286 285 285 285 285 283 281 280
264 265 263 263 263 265 266 268 268 269 271 273 275 275 276 278 280 283 284 285 285 285 286 286 287 288 290 290 290 290 289 287 286 287 286 285 285 285 285 284 282 281 280
266 268 266 265 265 264 270 272 272 273 274 275 276 278 279 280 282 283 284 285 286 287 288 289 290 290 290 290 290 290 289 288 287 286 286 285 285 284 283 283 281 280 280
268 268 269 271 269 266 269 272 274 275 275 276 276 278 280 282 283 283 284 286 287 288 289 290 291 291 291 290 290 290 289 289 287 287 286 286 286 284 284 283 281 281 280
268 270 271 273 271 271 272 273 274 275 276 277 278 280 281 282 284 285 286 289 290 290 290 291 292 292 292 292 292 291 290 289 288 287 286 286 286 285 284 282 281 280 279
267 268 271 273 271 271 273 275 275 277 280 280 282 283 284 286 287 288 290 290 290 290 291 291 292 292 293 293 292 291 290 289 289 288 287 287 287 286 285 284 282 280 279
269 269 270 272 272 272 273 276 278 278 278 281 283 285 287 289 291 292 292 292 292 291 291 292 292 293 293 293 293 292 291 290 289 289 288 287 286 286 285 284 282 280 279
270 271 272 272 274 276 276 276 278 280 279 282 286 289 290 292 293 294 294 294 294 293 293 294 294 294 293 293 293 292 292 291 290 289 288 287 286 286 285 284 283 282 280
269 270 271 274 275 277 279 280 283 284 285 287 290 292 294 294 295 295 295 294 294 294 295 294 294 293 292 292 292 291 291 290 289 288 287 286 286 285 285 285 284 283 282
268 270 273 275 278 281 282 284 286 287 289 291 293 294 295 295 295 295 295 295 295 295 295 295 294 293 292 292 291 290 290 290 289 288 287 287 286 285 285 285 285 285 284
274 277 281 283 285 286 288 290 292 293 295 296 297 297 297 297 296 296 296 296 296 296 296 295 294 293 292 292 291 291 291 290 290 289 289 289 289 289 289 289 288 287 285
280 283 285 287 289 291 293 294 295 296 298 299 299 299 299 299 299 298 298 297 297 297 296 296 295 294 294 294 294 294 294 293 292 292 292 291 291 291 291 290 289 288 287
286 287 289 291 293 294 295 296 297 299 301 301 301 301 301 301 301 300 299 299 298 297 296 296 296 296 297 297 297 297 296 295 294 293 294 294 294 292 292 292 291 289 288
291 292 294 295 297 299 300 301 302 303 303 303 304 304 303 303 302 301 300 299 298 298 297 297 297 297 297 298 298 298 296 295 296 296 296 295 295 294 293 292 292 290 290
296 297 299 300 302 302 303 303 304 304 305 305 305 305 305 304 304 302 301 300 300 299 299 298 299 298 298 299 299 298 298 298 298 298 298 297 295 295 294 292 292 292 291
300 301 302 303 304 304 304 305 306 306 306 306 306 306 306 306 304 302 302 302 302 302 302 302 301 301 300 300 300 300 300 301 301 301 300 299 298 297 297 296 294 294 293
303 304 304 304 304 305 306 306 307 307 307 308 308 307 306 306 305 302 303 304 304 304 304 304 304 304 303 303 303 303 303 304 304 304 303 302 302 300 299 297 296 296 295
Height
5833 5834 5836 5837 5839 5842 5845 5848 5851 5853 5856 5858 5860 5862 5863 5865 5867 5868 5869 5870 5871 5871 5872 5872 5872 5873 5873 5873 5872 5872 5871 5871 5870 5870 5869 5868 5868 5867 5866 5866 5865 5864 5863
5832 5833 5834 5836 5838 5840 5842 5845 5848 5850 5852 5854 5856 5858 5860 5861 5863 5864 5865 5866 5867 5867 5868 5868 5868 5868 5868 5868 5868 5867 5866 5866 5865 5864 5863 5862 5862 5861 5860 5859 5859 5858 5857
5831 5832 5833 5835 5836 5838 5841 5843 5845 5847 5849 5850 5852 5854 5855 5857 5858 5859 5860 5861 5862 5863 5863 5863 5863 5863 5863 5862 5862 5861 5860 5860 5859 5858 5857 5856 5855 5854 5853 5852 5851 5851 5850
5830 5831 5832 5833 5835 5837 5838 5840 5842 5844 5845 5846 5847 5849 5851 5852 5853 5854 5855 5856 5857 5857 5857 5857 5857 5857 5856 5856 5855 5854 5853 5852 5851 5851 5850 5849 5848 5846 5845 5844 5843 5842 5841
5829 5830 5831 5831 5833 5834 5836 5837 5839 5840 5841 5842 5843 5845 5846 5847 5848 5849 5850 5850 5851 5851 5851 5850 5850 5850 5849 5848 5847 5846 5845 5844 5843 5842 5841 5840 5839 5838 5836 5835 5834 5833 5832
5828 5828 5829 5829 5830 5832 5833 5834 5836 5837 5838 5839 5840 5841 5842 5843 5843 5844 5844 5844 5844 5844 5844 5843 5843 5843 5842 5840 5839 5837 5836 5835 5834 5833 5832 5830 5829 5827 5826 5825 5824 5823 5822
5825 5826 5826 5827 5827 5829 5830 5831 5833 5834 5835 5836 5837 5837 5837 5837 5838 5838 5838 5838 5837 5837 5836 5836 5835 5834 5833 5831 5830 5828 5827 5825 5824 5822 5821 5820 5818 5816 5815 5814 5812 5811 5811
5823 5823 5823 5824 5825 5826 5827 5828 5828 5829 5830 5831 5831 5832 5832 5832 5832 5832 5831 5830 5830 5829 5828 5827 5826 5825 5824 5822 5820 5819 5817 5815 5813 5811 5810 5808 5806 5804 5803 5801 5800 5799 5798
5819 5819 5820 5820 5821 5822 5823 5823 5824 5824 5825 5825 5825 5825 5825 5825 5825 5824 5824 5823 5822 5821 5820 5818 5817 5816 5814 5812 5810 5809 5807 5804 5802 5800 5798 5796 5794 5792 5790 5788 5787 5786 5785
5814 5815 5815 5816 5816 5817 5818 5818 5818 5818 5818 5818 5818 5818 5818 5818 5817 5816 5815 5814 5813 5812 5811 5809 5807 5806 5804 5801 5799 5797 5795 5793 5790 5788 5786 5784 5781 5779 5777 5774 5773 5771 5770
5809 5809 5809 5810 5811 5811 5811 5811 5811 5812 5812 5812 5812 5811 5811 5810 5809 5808 5806 5805 5804 5802 5800 5799 5796 5794 5792 5790 5787 5785 5782 5780 5777 5775 5773 5770 5768 5765 5763 5761 5758 5756 5754
5802 5802 5803 5804 5804 5805 5805 5805 5805 5805 5805 5804 5803 5803 5802 5801 5800 5799 5797 5795 5793 5791 5789 5787 5785 5783 5780 5777 5775 5772 5769 5766 5763 5761 5758 5756 5753 5751 5748 5746 5744 5741 5739
5796 5796 5797 5797 5798 5798 5798 5798 5798 5797 5796 5795 5794 5793 5793 5791 5790 5788 5787 5785 5783 5780 5778 5775 5773 5770 5768 5765 5762 5758 5755 5752 5749 5746 5743 5740 5738 5735 5732 5730 5728 5725 5723
5790 5790 5790 5790 5790 5790 5790 5790 5789 5789 5788 5787 5784 5784 5783 5782 5780 5778 5776 5774 5772 5769 5766 5764 5761 5758 5754 5751 5748 5745 5741 5738 5734 5732 5728 5725 5722 5719 5716 5713 5710 5708 5706
5782 5782 5783 5783 5783 5782 5781 5780 5780 5780 5779 5777 5776 5775 5773 5772 5770 5768 5766 5763 5760 5758 5755 5751 5748 5745 5741 5737 5734 5730 5727 5723 5720 5716 5712 5709 5705 5702 5699 5695 5693 5690 5688
5775 5775 5775 5775 5774 5774 5773 5773 5771 5771 5770 5768 5767 5765 5763 5761 5759 5757 5754 5751 5748 5745 5742 5738 5734 5731 5727 5723 5718 5715 5711 5707 5703 5700 5696 5692 5689 5685 5682 5678 5675 5673 5671
5767 5767 5767 5767 5767 5766 5765 5765 5764 5763 5762 5760 5758 5756 5754 5751 5748 5745 5742 5739 5735 5732 5728 5724 5720 5716 5711 5707 5703 5699 5694 5690 5686 5682 5679 5675 5672 5668 5665 5662 5659 5656 5654
5759 5759 5759 5759 5759 5758 5758 5756 5756 5755 5753 5751 5749 5746 5743 5740 5737 5734 5730 5726 5722 5718 5714 5710 5705 5701 5696 5692 5687 5683 5678 5674 5670 5666 5662 5658 5655 5652 5649 5646 5642 5639 5637
5753 5753 5752 5752 5751 5751 5750 5748 5747 5745 5743 5741 5739 5735 5732 5729 5726 5722 5717 5713 5709 5704 5699 5695 5690 5685 5681 5676 5671 5667 5663 5658 5654 5650 5646 5643 5640 5636 5633 5630 5627 5623 5621
5746 5746 5745 5745 5744 5743 5741 5739 5737 5735 5733 5730 5727 5723 5720 5716 5713 5708 5704 5699 5694 5689 5684 5679 5675 5670 5665 5661 5656 5651 5647 5643 5639 5635 5631 5628 5624 5621 5618 5615 5611 5608 5605
5740 5739 5739 5737 5736 5734 5732 5730 5727 5725 5722 5718 5715 5711 5706 5702 5698 5693 5689 5685 5680 5674 5670 5665 5660 5655 5651 5646 5642 5637 5633 5629 5625 5621 5618 5614 5611 5608 5604 5601 5598 5595 5592
5734 5733 5732 5730 5728 5726 5723 5720 5717 5714 5710 5706 5702 5698 5693 5688 5684 5679 5674 5670 5665 5661 5656 5651 5646 5642 5638 5634 5629 5625 5621 5616 5613 5609 5605 5602 5599 5596 5593 5589 5586 5583 5581
5726 5725 5723 5721 5719 5716 5713 5709 5706 5702 5698 5694 5689 5685 5680 5675 5671 5666 5661 5656 5652 5647 5643 5639 5634 5630 5626 5622 5618 5614 5609 5605 5602 5598 5594 5591 5587 5584 5581 5579 5576 5573 5571
5719 5717 5714 5712 5709 5706 5702 5698 5695 5690 5686 5681 5677 5672 5668 5663 5658 5653 5649 5644 5640 5635 5631 5627 5623 5619 5616 5612 5607 5603 5599 5595 5592 5588 5584 5581 5577 5574 5571 5569 5566 5564 5562
5710 5707 5705 5702 5699 5695 5691 5687 5683 5679 5674 5670 5665 5661 5656 5652 5647 5642 5638 5633 5629 5626 5622 5618 5614 5610 5606 5602 5597 5593 5589 5586 5582 5578 5575 5572 5569 5566 5563 5560 5558 5556 5554
5701 5698 5695 5692 5688 5685 5680 5676 5672 5668 5664 5659 5655 5650 5646 5642 5637 5633 5629 5624 5620 5616 5612 5608 5604 5600 5596 5592 5588 5584 5581 5577 5574 5570 5567 5564 5561 5558 5556 5553 5551 5549 5547